080  
ASUS43 KGLD 172208  
RWRGLD  
 
GOODLAND FORECAST AREA HOURLY WEATHER ROUNDUP  
NATIONAL WEATHER SERVICE GOODLAND KS  
300 PM MST WED JAN 17 2018  
   
..OFFICIAL OBSERVATIONS
 
 
 
CITY SKY/WX TMP DP RH WIND PRES REMARKS
 
GOODLAND KS SUNNY 50 2 14 N5 30.25S  
HILL CITY KS SUNNY 39 14 36 S10 30.33S  
IMPERIAL NEB SUNNY 44 15 31 NW8 30.25S  
MCCOOK NEB SUNNY 40 20 44 VRB5 30.28S  
AKRON CO SUNNY 47 15 27 N12G17 30.25R  
BURLINGTON CO SUNNY 50 0 12 VRB6 30.25S  
LIMON CO SUNNY 48 1 14 N13 30.26S  

 
   
..UNOFFICIAL OBSERVATIONS
 
 
 
CITY SKY/WX TMP DP RH WIND PRES REMARKS
 
COLBY KS SUNNY 46 19 34 W6 30.27S  
LENORA KS N/A 37 32 82 S6 N/A  
NORTON KS SUNNY 37 10 32 SE8 30.30  
SHARON SPRINGS N/A 53 12 19 CALM N/A  
TRENTON NEB N/A 45 32 60 CALM N/A  
KIT CARSON CO N/A 52 4 14 MISG N/A  
YUMA CO FAIR 48 10 21 NW12 30.23S  

 
 
 
CLICK HERE TO GO TO PREVIOUS BULLETINS.

The Nexlab KS Page
The Nexlab CO Page
The Nexlab NE Page Main Text Page